Time,TemperatureF,DewpointF,PressureIn,WindDirection,WindDirectionDegrees,WindSpeedMPH,WindSpeedGustMPH,Humidity,HourlyPrecipIn,Conditions,Clouds,dailyrainin,SoftwareType,DateUTC
2013-01-26 00:03:00,3.9,-11.9,29.38,WNW,292,2.3,2.3,47,0.00,,FEW,0.00,WeatherDisplay:10.37,2013-01-26 06:03:00,
2013-01-26 00:08:00,3.9,-11.9,29.38,WNW,292,2.3,2.3,47,0.00,,FEW,0.00,WeatherDisplay:10.37,2013-01-26 06:08:00,
2013-01-26 00:13:00,3.9,-11.9,29.38,WNW,292,2.3,2.3,47,0.00,,FEW,0.00,WeatherDisplay:10.37,2013-01-26 06:13:00,
2013-01-26 00:18:00,3.9,-11.9,29.38,WNW,292,2.3,2.3,47,0.00,,FEW,0.00,WeatherDisplay:10.37,2013-01-26 06:18:00,
2013-01-26 00:23:00,3.9,-11.9,29.38,WNW,292,2.3,2.3,47,0.00,,FEW,0.00,WeatherDisplay:10.37,2013-01-26 06:23:00,
2013-01-26 00:28:00,3.9,-11.9,29.38,WNW,292,2.3,2.3,47,0.00,,FEW,0.00,WeatherDisplay:10.37,2013-01-26 06:28:00,
2013-01-26 00:33:00,3.9,-11.9,29.38,WNW,292,2.3,2.3,47,0.00,,FEW,0.00,WeatherDisplay:10.37,2013-01-26 06:33:00,
2013-01-26 00:38:00,3.9,-11.9,29.38,WNW,292,2.3,2.3,47,0.00,,FEW,0.00,WeatherDisplay:10.37,2013-01-26 06:38:00,
2013-01-26 00:43:00,3.9,-11.9,29.38,WNW,292,2.3,2.3,47,0.00,,FEW,0.00,WeatherDisplay:10.37,2013-01-26 06:43:00,
2013-01-26 00:48:00,3.9,-11.9,29.38,WNW,292,2.3,2.3,47,0.00,,FEW,0.00,WeatherDisplay:10.37,2013-01-26 06:48:00,
2013-01-26 00:53:00,3.9,-11.9,29.38,WNW,292,2.3,2.3,47,0.00,,FEW,0.00,WeatherDisplay:10.37,2013-01-26 06:53:00,
2013-01-26 00:58:00,3.9,-11.9,29.38,WNW,292,2.3,2.3,47,0.00,,FEW,0.00,WeatherDisplay:10.37,2013-01-26 06:58:00,
2013-01-26 01:03:00,3.9,-11.9,29.38,WNW,292,2.3,2.3,47,0.00,,FEW,0.00,WeatherDisplay:10.37,2013-01-26 07:03:00,
2013-01-26 01:08:00,3.9,-11.9,29.38,WNW,292,2.3,2.3,47,0.00,,FEW,0.00,WeatherDisplay:10.37,2013-01-26 07:08:00,
2013-01-26 01:13:00,3.9,-11.9,29.38,WNW,292,2.3,2.3,47,0.00,,FEW,0.00,WeatherDisplay:10.37,2013-01-26 07:13:00,
2013-01-26 01:18:00,3.9,-11.9,29.38,WNW,292,2.3,2.3,47,0.00,,FEW,0.00,WeatherDisplay:10.37,2013-01-26 07:18:00,
2013-01-26 01:23:00,3.9,-11.9,29.38,WNW,292,2.3,2.3,47,0.00,,FEW,0.00,WeatherDisplay:10.37,2013-01-26 07:23:00,
2013-01-26 01:28:00,3.9,-11.9,29.38,WNW,292,2.3,2.3,47,0.00,,FEW,0.00,WeatherDisplay:10.37,2013-01-26 07:28:00,
2013-01-26 01:33:00,3.9,-11.9,29.38,WNW,292,2.3,2.3,47,0.00,,FEW,0.00,WeatherDisplay:10.37,2013-01-26 07:33:00,
2013-01-26 01:38:00,3.9,-11.9,29.38,WNW,292,2.3,2.3,47,0.00,,FEW,0.00,WeatherDisplay:10.37,2013-01-26 07:38:00,
2013-01-26 01:43:00,3.9,-11.9,29.38,WNW,292,2.3,2.3,47,0.00,,FEW,0.00,WeatherDisplay:10.37,2013-01-26 07:43:00,
2013-01-26 01:48:00,3.9,-11.9,29.41,WNW,292,2.3,2.3,47,0.00,,FEW,0.00,WeatherDisplay:10.37,2013-01-26 07:48:00,
2013-01-26 01:53:00,3.9,-11.9,29.41,NNE,22,2.3,2.3,47,0.00,,FEW,0.00,WeatherDisplay:10.37,2013-01-26 07:53:00,
2013-01-26 01:58:00,3.9,-11.9,29.41,NNE,22,1.1,1.1,47,0.00,,FEW,0.00,WeatherDisplay:10.37,2013-01-26 07:58:00,
2013-01-26 02:03:00,3.9,-11.9,29.38,NNE,22,1.1,1.1,47,0.00,,FEW,0.00,WeatherDisplay:10.37,2013-01-26 08:03:00,
2013-01-26 02:08:00,3.9,-11.9,29.38,NNE,22,1.1,1.1,47,0.00,,FEW,0.00,WeatherDisplay:10.37,2013-01-26 08:08:00,
2013-01-26 02:13:00,1.6,-14.0,29.38,NNE,22,0.0,0.0,47,0.00,,FEW,0.00,WeatherDisplay:10.37,2013-01-26 08:13:00,
2013-01-26 02:18:00,1.4,-14.2,29.38,NNE,22,0.0,0.0,47,0.00,,FEW,0.00,WeatherDisplay:10.37,2013-01-26 08:18:00,
2013-01-26 02:23:00,1.2,-14.4,29.38,NE,45,1.1,1.1,47,0.00,,FEW,0.00,WeatherDisplay:10.37,2013-01-26 08:23:00,
2013-01-26 02:28:00,1.0,-14.5,29.38,NE,45,0.0,0.0,47,0.00,,FEW,0.00,WeatherDisplay:10.37,2013-01-26 08:28:00,
2013-01-26 02:33:00,0.7,-14.9,29.38,NNE,22,0.0,0.0,47,0.00,,FEW,0.00,WeatherDisplay:10.37,2013-01-26 08:33:00,
2013-01-26 02:38:00,0.7,-14.9,29.38,NNE,22,0.0,0.0,47,0.00,,FEW,0.00,WeatherDisplay:10.37,2013-01-26 08:38:00,
2013-01-26 02:43:00,0.3,-15.2,29.38,NNE,22,0.0,0.0,47,0.00,,FEW,0.00,WeatherDisplay:10.37,2013-01-26 08:43:00,
2013-01-26 02:48:00,0.0,-15.5,29.38,NNE,22,0.0,0.0,47,0.00,,FEW,0.00,WeatherDisplay:10.37,2013-01-26 08:48:00,
2013-01-26 02:53:00,-0.2,-15.7,29.38,NNE,22,0.0,0.0,47,0.00,,FEW,0.00,WeatherDisplay:10.37,2013-01-26 08:53:00,
2013-01-26 02:58:00,0.3,-15.2,29.38,ENE,68,0.0,0.0,47,0.00,,FEW,0.00,WeatherDisplay:10.37,2013-01-26 08:58:00,
2013-01-26 03:03:00,0.1,-15.4,29.38,ENE,68,0.0,0.0,47,0.00,,FEW,0.00,WeatherDisplay:10.37,2013-01-26 09:03:00,
2013-01-26 03:08:00,0.0,-15.5,29.38,ENE,68,0.0,0.0,47,0.00,,FEW,0.00,WeatherDisplay:10.37,2013-01-26 09:08:00,
2013-01-26 03:13:00,0.0,-15.5,29.38,West,270,1.4,0.0,47,0.00,,FEW,0.00,WeatherDisplay:10.37,2013-01-26 09:13:00,
2013-01-26 03:18:00,0.1,-15.4,29.38,West,270,1.1,1.1,47,0.00,,FEW,0.00,WeatherDisplay:10.37,2013-01-26 09:18:00,
2013-01-26 03:23:00,0.3,-15.2,29.38,WNW,292,2.6,2.6,47,0.00,,FEW,0.00,WeatherDisplay:10.37,2013-01-26 09:23:00,
2013-01-26 03:28:00,0.7,-14.9,29.38,WNW,292,2.3,2.3,47,0.00,,FEW,0.00,WeatherDisplay:10.37,2013-01-26 09:28:00,
2013-01-26 03:33:00,0.7,-14.9,29.38,WNW,292,2.3,2.3,47,0.00,,FEW,0.00,WeatherDisplay:10.37,2013-01-26 09:33:00,
2013-01-26 03:38:00,0.9,-14.7,29.38,WNW,292,2.3,2.3,47,0.00,,FEW,0.00,WeatherDisplay:10.37,2013-01-26 09:38:00,
2013-01-26 03:43:00,0.7,-14.9,29.38,WNW,292,1.1,0.0,47,0.00,,FEW,0.00,WeatherDisplay:10.37,2013-01-26 09:43:00,
2013-01-26 03:48:00,0.7,-14.9,29.41,WSW,248,1.1,1.1,47,0.00,,FEW,0.00,WeatherDisplay:10.37,2013-01-26 09:48:00,
2013-01-26 03:53:00,0.3,-15.2,29.41,WSW,248,0.0,0.0,47,0.00,,FEW,0.00,WeatherDisplay:10.37,2013-01-26 09:53:00,
2013-01-26 03:58:00,0.3,-15.2,29.41,WSW,248,0.0,0.0,47,0.00,,FEW,0.00,WeatherDisplay:10.37,2013-01-26 09:58:00,
2013-01-26 04:03:00,0.3,-15.2,29.38,WSW,248,0.0,0.0,47,0.00,,FEW,0.00,WeatherDisplay:10.37,2013-01-26 10:03:00,
2013-01-26 04:08:00,0.1,-15.4,29.38,WSW,248,0.0,0.0,47,0.00,,FEW,0.00,WeatherDisplay:10.37,2013-01-26 10:08:00,
2013-01-26 04:14:00,-0.2,-15.7,29.38,WSW,248,0.0,0.0,47,0.00,,FEW,0.00,WeatherDisplay:10.37,2013-01-26 10:14:00,
2013-01-26 04:19:00,-0.6,-16.0,29.38,WSW,248,0.0,0.0,47,0.00,,FEW,0.00,WeatherDisplay:10.37,2013-01-26 10:19:00,
2013-01-26 04:24:00,-0.6,-16.0,29.38,WSW,248,0.0,0.0,47,0.00,,FEW,0.00,WeatherDisplay:10.37,2013-01-26 10:24:00,
2013-01-26 04:29:00,-0.4,-15.9,29.38,SSW,202,2.3,2.3,47,0.00,,FEW,0.00,WeatherDisplay:10.37,2013-01-26 10:29:00,
2013-01-26 04:34:00,-0.2,-15.7,29.38,SSW,202,2.3,2.3,47,0.00,,FEW,0.00,WeatherDisplay:10.37,2013-01-26 10:34:00,
2013-01-26 04:39:00,-0.4,-15.9,29.38,SSW,202,2.3,2.3,47,0.00,,FEW,0.00,WeatherDisplay:10.37,2013-01-26 10:39:00,
2013-01-26 04:44:00,-0.6,-16.0,29.38,SSE,158,1.1,1.1,47,0.00,,FEW,0.00,WeatherDisplay:10.37,2013-01-26 10:44:00,
2013-01-26 04:49:00,-0.8,-16.2,29.38,South,180,0.0,0.0,47,0.00,,FEW,0.00,WeatherDisplay:10.37,2013-01-26 10:49:00,
2013-01-26 04:54:00,-0.9,-16.4,29.38,SSW,202,0.0,0.0,47,0.00,,FEW,0.00,WeatherDisplay:10.37,2013-01-26 10:54:00,
2013-01-26 04:59:00,-1.1,-16.5,29.38,SSW,202,0.0,0.0,47,0.00,,FEW,0.00,WeatherDisplay:10.37,2013-01-26 10:59:00,
2013-01-26 05:04:00,-1.1,-16.5,29.38,SSE,158,1.1,0.0,47,0.00,,FEW,0.00,WeatherDisplay:10.37,2013-01-26 11:04:00,
2013-01-26 05:09:00,-1.1,-16.5,29.38,SSE,158,1.6,1.6,47,0.00,,FEW,0.00,WeatherDisplay:10.37,2013-01-26 11:09:00,
2013-01-26 05:14:00,-0.9,-16.4,29.38,SSE,158,1.1,1.1,47,0.00,,FEW,0.00,WeatherDisplay:10.37,2013-01-26 11:14:00,
2013-01-26 05:19:00,-0.8,-16.2,29.38,SSE,158,1.6,1.6,47,0.00,,FEW,0.00,WeatherDisplay:10.37,2013-01-26 11:19:00,
2013-01-26 05:24:00,-0.8,-16.2,29.38,SSE,158,1.6,1.6,47,0.00,,FEW,0.00,WeatherDisplay:10.37,2013-01-26 11:24:00,
2013-01-26 05:29:00,-0.8,-16.2,29.38,SSW,202,2.3,2.3,47,0.00,,FEW,0.00,WeatherDisplay:10.37,2013-01-26 11:29:00,
2013-01-26 05:34:00,-0.9,-16.4,29.41,SSW,202,1.4,1.4,47,0.00,,FEW,0.00,WeatherDisplay:10.37,2013-01-26 11:34:00,
2013-01-26 05:39:00,-0.9,-16.4,29.41,SSW,202,3.5,3.5,47,0.00,,FEW,0.00,WeatherDisplay:10.37,2013-01-26 11:39:00,
2013-01-26 05:44:00,-0.9,-16.4,29.41,SSW,202,2.3,2.3,47,0.00,,FEW,0.00,WeatherDisplay:10.37,2013-01-26 11:44:00,
2013-01-26 05:49:00,-1.1,-16.5,29.38,SSW,202,2.3,2.3,47,0.00,,FEW,0.00,WeatherDisplay:10.37,2013-01-26 11:49:00,
2013-01-26 05:54:00,-1.3,-16.7,29.38,South,180,1.4,1.4,47,0.00,,FEW,0.00,WeatherDisplay:10.37,2013-01-26 11:54:00,
2013-01-26 05:59:00,-1.3,-16.7,29.38,SSW,202,2.3,2.3,47,0.00,,FEW,0.00,WeatherDisplay:10.37,2013-01-26 11:59:00,
2013-01-26 06:04:00,-1.3,-16.7,29.38,SSW,202,2.3,2.3,47,0.00,,FEW,0.00,WeatherDisplay:10.37,2013-01-26 12:04:00,
2013-01-26 06:09:00,-1.3,-16.7,29.38,SSW,202,2.3,2.3,47,0.00,,FEW,0.00,WeatherDisplay:10.37,2013-01-26 12:09:00,
2013-01-26 06:14:00,-1.3,-16.7,29.38,SSE,158,2.3,2.3,47,0.00,,FEW,0.00,WeatherDisplay:10.37,2013-01-26 12:14:00,
2013-01-26 06:19:00,-1.3,-16.7,29.38,South,180,1.4,1.4,47,0.00,,FEW,0.00,WeatherDisplay:10.37,2013-01-26 12:19:00,
2013-01-26 06:24:00,-1.3,-16.7,29.38,SSE,158,1.1,1.1,47,0.00,,FEW,0.00,WeatherDisplay:10.37,2013-01-26 12:24:00,
2013-01-26 06:29:00,-1.3,-16.7,29.38,SE,135,1.1,0.0,47,0.00,,FEW,0.00,WeatherDisplay:10.37,2013-01-26 12:29:00,
2013-01-26 06:34:00,-1.1,-16.5,29.38,SE,135,2.3,2.3,47,0.00,,FEW,0.00,WeatherDisplay:10.37,2013-01-26 12:34:00,
2013-01-26 06:39:00,-1.1,-16.5,29.38,SSE,158,2.3,2.3,47,0.00,,FEW,0.00,WeatherDisplay:10.37,2013-01-26 12:39:00,
2013-01-26 06:44:00,-1.1,-16.5,29.38,SSW,202,2.9,2.9,47,0.00,,FEW,0.00,WeatherDisplay:10.37,2013-01-26 12:44:00,
2013-01-26 06:49:00,-0.9,-16.4,29.38,SSW,202,2.3,2.3,47,0.00,,FEW,0.00,WeatherDisplay:10.37,2013-01-26 12:49:00,
2013-01-26 06:54:00,-0.9,-16.4,29.38,SSW,202,2.3,2.3,47,0.00,,FEW,0.00,WeatherDisplay:10.37,2013-01-26 12:54:00,
2013-01-26 06:59:00,-0.9,-16.4,29.38,SSW,202,2.4,2.4,47,0.00,,FEW,0.00,WeatherDisplay:10.37,2013-01-26 12:59:00,
2013-01-26 07:04:00,-0.9,-16.4,29.38,WSW,248,2.3,2.3,47,0.00,,FEW,0.00,WeatherDisplay:10.37,2013-01-26 13:04:00,
2013-01-26 07:09:00,-0.9,-16.4,29.38,SSW,202,2.3,2.3,47,0.00,,FEW,0.00,WeatherDisplay:10.37,2013-01-26 13:09:00,
2013-01-26 07:14:00,-0.9,-16.4,29.38,SSW,202,2.3,2.3,47,0.00,,FEW,0.00,WeatherDisplay:10.37,2013-01-26 13:14:00,
2013-01-26 07:19:00,-0.9,-16.4,29.38,SE,135,1.6,1.6,47,0.00,,FEW,0.00,WeatherDisplay:10.37,2013-01-26 13:19:00,
2013-01-26 07:24:00,-0.9,-16.4,29.38,ESE,112,1.1,0.0,47,0.00,,FEW,0.00,WeatherDisplay:10.37,2013-01-26 13:24:00,
2013-01-26 07:29:00,-1.1,-16.5,29.38,ESE,112,0.0,0.0,47,0.00,,FEW,0.00,WeatherDisplay:10.37,2013-01-26 13:29:00,
2013-01-26 07:34:00,-1.1,-16.5,29.38,ESE,112,0.0,0.0,47,0.00,,FEW,0.00,WeatherDisplay:10.37,2013-01-26 13:34:00,
2013-01-26 07:39:00,-1.1,-16.5,29.38,SSE,158,0.0,0.0,47,0.00,,FEW,0.00,WeatherDisplay:10.37,2013-01-26 13:39:00,
2013-01-26 07:44:00,-0.9,-16.4,29.38,ESE,112,1.1,1.1,47,0.00,,FEW,0.00,WeatherDisplay:10.37,2013-01-26 13:44:00,
2013-01-26 07:49:00,-0.8,-16.2,29.38,SE,135,1.1,1.1,47,0.00,,FEW,0.00,WeatherDisplay:10.37,2013-01-26 13:49:00,
2013-01-26 07:54:00,-0.6,-16.0,29.38,ESE,112,1.1,1.4,47,0.00,,FEW,0.00,WeatherDisplay:10.37,2013-01-26 13:54:00,
2013-01-26 07:59:00,-0.6,-16.0,29.38,ESE,112,0.0,0.0,47,0.00,,FEW,0.00,WeatherDisplay:10.37,2013-01-26 13:59:00,
2013-01-26 08:04:00,0.0,-15.5,29.41,ESE,112,2.3,2.3,47,0.00,,FEW,0.00,WeatherDisplay:10.37,2013-01-26 14:04:00,
2013-01-26 08:09:00,0.1,-15.4,29.41,SE,135,1.1,1.4,47,0.00,,FEW,0.00,WeatherDisplay:10.37,2013-01-26 14:09:00,
2013-01-26 08:14:00,0.3,-15.2,29.41,SE,135,2.3,2.3,47,0.00,,FEW,0.00,WeatherDisplay:10.37,2013-01-26 14:14:00,
2013-01-26 08:19:00,0.5,-15.0,29.41,South,180,1.6,1.6,47,0.00,,FEW,0.00,WeatherDisplay:10.37,2013-01-26 14:19:00,
2013-01-26 08:24:00,1.0,-14.5,29.41,ESE,112,1.1,0.0,47,0.00,,FEW,0.00,WeatherDisplay:10.37,2013-01-26 14:24:00,
2013-01-26 08:29:00,2.3,-13.4,29.41,SE,135,0.9,0.0,47,0.00,,FEW,0.00,WeatherDisplay:10.37,2013-01-26 14:29:00,
2013-01-26 08:34:00,2.5,-13.2,29.38,SE,135,1.4,1.4,47,0.00,,FEW,0.00,WeatherDisplay:10.37,2013-01-26 14:34:00,
2013-01-26 08:39:00,5.4,-10.5,29.38,SSE,158,0.0,0.0,47,0.00,,FEW,0.00,WeatherDisplay:10.37,2013-01-26 14:39:00,
2013-01-26 08:44:00,6.8,-9.2,29.38,SSE,148,1.0,0.0,47,0.00,,FEW,0.00,WeatherDisplay:10.37,2013-01-26 14:44:00,
2013-01-26 08:49:00,7.7,-8.4,29.38,South,169,2.0,0.0,47,0.00,,FEW,0.00,WeatherDisplay:10.37,2013-01-26 14:49:00,
2013-01-26 08:54:00,7.0,-9.0,29.38,SSW,202,1.1,1.1,47,0.00,,FEW,0.00,WeatherDisplay:10.37,2013-01-26 14:54:00,
2013-01-26 08:59:00,6.1,-9.9,29.38,SSE,158,2.3,2.3,47,0.00,,FEW,0.00,WeatherDisplay:10.37,2013-01-26 14:59:00,
2013-01-26 09:04:00,6.0,-9.9,29.38,SSW,196,1.0,0.0,47,0.00,,FEW,0.00,WeatherDisplay:10.37,2013-01-26 15:04:00,
2013-01-26 09:09:00,5.5,-10.4,29.38,SSE,158,2.3,2.3,47,0.00,,FEW,0.00,WeatherDisplay:10.37,2013-01-26 15:09:00,
2013-01-26 09:14:00,5.9,-10.0,29.38,South,189,1.0,0.0,47,0.00,,FEW,0.00,WeatherDisplay:10.37,2013-01-26 15:14:00,
2013-01-26 09:19:00,6.1,-9.9,29.44,SSW,202,1.1,1.1,47,0.00,,FEW,0.00,WeatherDisplay:10.37,2013-01-26 15:19:00,
2013-01-26 09:24:00,6.4,-9.5,29.44,SSE,158,3.5,3.5,47,0.00,,FEW,0.00,WeatherDisplay:10.37,2013-01-26 15:24:00,
2013-01-26 09:29:00,6.8,-9.2,29.44,ESE,112,5.6,5.6,47,0.00,,FEW,0.00,WeatherDisplay:10.37,2013-01-26 15:29:00,
2013-01-26 09:34:00,7.2,-8.9,29.38,ESE,112,3.5,3.5,47,0.00,,FEW,0.00,WeatherDisplay:10.37,2013-01-26 15:34:00,
2013-01-26 09:39:00,7.3,-8.7,29.38,SE,136,5.0,0.0,47,0.00,,FEW,0.00,WeatherDisplay:10.37,2013-01-26 15:39:00,
2013-01-26 09:44:00,7.9,-8.2,29.38,SE,146,3.0,0.0,47,0.00,,FEW,0.00,WeatherDisplay:10.37,2013-01-26 15:44:00,
2013-01-26 09:49:00,8.4,-7.7,29.41,SSE,158,7.1,7.1,47,0.00,,FEW,0.00,WeatherDisplay:10.37,2013-01-26 15:49:00,
2013-01-26 09:54:00,9.0,-7.2,29.41,SSE,147,6.0,0.0,47,0.00,,FEW,0.00,WeatherDisplay:10.37,2013-01-26 15:54:00,
2013-01-26 09:59:00,9.5,-6.7,29.41,SE,143,5.0,0.0,47,0.00,,FEW,0.00,WeatherDisplay:10.37,2013-01-26 15:59:00,
2013-01-26 10:04:00,9.5,-6.7,29.41,SSE,158,8.1,8.1,47,0.00,,FEW,0.00,WeatherDisplay:10.37,2013-01-26 16:04:00,
2013-01-26 10:09:00,9.7,-6.5,29.41,SE,143,7.0,0.0,47,0.00,,FEW,0.00,WeatherDisplay:10.37,2013-01-26 16:09:00,
2013-01-26 10:14:00,10.0,-6.2,29.41,SE,136,5.0,0.0,47,0.00,,FEW,0.00,WeatherDisplay:10.37,2013-01-26 16:14:00,
2013-01-26 10:19:00,10.4,-5.9,29.38,SSE,158,5.9,5.9,47,0.00,,FEW,0.00,WeatherDisplay:10.37,2013-01-26 16:19:00,
2013-01-26 10:24:00,10.8,-5.6,29.38,SSE,152,5.0,0.0,47,0.00,,FEW,0.00,WeatherDisplay:10.37,2013-01-26 16:24:00,
2013-01-26 10:29:00,10.6,-5.7,29.38,SE,135,9.2,9.2,47,0.00,,FEW,0.00,WeatherDisplay:10.37,2013-01-26 16:29:00,
2013-01-26 10:34:00,10.9,-5.4,29.38,SSW,202,6.9,6.9,47,0.00,,FEW,0.00,WeatherDisplay:10.37,2013-01-26 16:34:00,
2013-01-26 10:39:00,10.9,-5.4,29.38,SSE,148,7.0,0.0,47,0.00,,FEW,0.00,WeatherDisplay:10.37,2013-01-26 16:39:00,
2013-01-26 10:44:00,10.9,-5.4,29.38,ESE,112,8.1,8.1,47,0.00,,FEW,0.00,WeatherDisplay:10.37,2013-01-26 16:44:00,
2013-01-26 10:49:00,11.7,-4.7,29.38,SSE,158,9.2,9.2,47,0.00,,FEW,0.00,WeatherDisplay:10.37,2013-01-26 16:49:00,
2013-01-26 10:54:00,11.7,-4.7,29.38,SE,134,3.0,0.0,47,0.00,,FEW,0.00,WeatherDisplay:10.37,2013-01-26 16:54:00,
2013-01-26 10:59:00,12.9,-3.6,29.38,SE,135,5.0,0.0,47,0.00,,FEW,0.00,WeatherDisplay:10.37,2013-01-26 16:59:00,
2013-01-26 11:04:00,13.3,-3.2,29.38,SE,130,3.0,0.0,47,0.00,,FEW,0.00,WeatherDisplay:10.37,2013-01-26 17:04:00,
2013-01-26 11:09:00,13.6,-2.9,29.38,ESE,112,8.1,8.1,47,0.00,,FEW,0.00,WeatherDisplay:10.37,2013-01-26 17:09:00,
2013-01-26 11:14:00,13.8,-2.7,29.38,ESE,112,5.8,5.8,47,0.00,,FEW,0.00,WeatherDisplay:10.37,2013-01-26 17:14:00,
2013-01-26 11:19:00,14.4,0.7,29.38,SE,128,7.0,0.0,54,0.00,,FEW,0.00,WeatherDisplay:10.37,2013-01-26 17:19:00,
2013-01-26 11:24:00,14.2,0.6,29.38,SE,135,9.8,9.8,54,0.00,,FEW,0.00,WeatherDisplay:10.37,2013-01-26 17:24:00,
2013-01-26 11:29:00,14.4,0.7,29.38,ESE,112,9.2,9.2,54,0.00,,FEW,0.00,WeatherDisplay:10.37,2013-01-26 17:29:00,
2013-01-26 11:34:00,16.5,2.3,29.38,SE,125,5.0,0.0,53,0.00,,FEW,0.00,WeatherDisplay:10.37,2013-01-26 17:34:00,
2013-01-26 11:39:00,17.4,2.8,29.38,SSE,158,6.0,6.0,52,0.00,,FEW,0.00,WeatherDisplay:10.37,2013-01-26 17:39:00,
2013-01-26 11:44:00,16.5,1.5,29.38,SSE,158,6.0,6.0,51,0.00,,FEW,0.00,WeatherDisplay:10.37,2013-01-26 17:44:00,
2013-01-26 11:49:00,16.5,1.5,29.35,SE,132,5.0,0.0,51,0.00,,FEW,0.00,WeatherDisplay:10.37,2013-01-26 17:49:00,
2013-01-26 11:54:00,17.4,2.3,29.35,SE,135,7.0,0.0,51,0.00,,FEW,0.00,WeatherDisplay:10.37,2013-01-26 17:54:00,
2013-01-26 11:59:00,18.2,2.7,29.35,SE,136,6.0,0.0,50,0.00,,FEW,0.00,WeatherDisplay:10.37,2013-01-26 17:59:00,
2013-01-26 12:04:00,17.8,2.3,29.35,SE,135,12.0,0.0,50,0.00,,FEW,0.00,WeatherDisplay:10.37,2013-01-26 18:04:00,
2013-01-26 12:09:00,18.3,2.8,29.35,SSE,158,6.2,6.2,50,0.00,,FEW,0.00,WeatherDisplay:10.37,2013-01-26 18:09:00,
2013-01-26 12:14:00,18.2,2.7,29.35,SSE,153,6.0,0.0,50,0.00,,FEW,0.00,WeatherDisplay:10.37,2013-01-26 18:14:00,
2013-01-26 12:19:00,18.5,2.9,29.35,SE,144,5.0,0.0,50,0.00,,FEW,0.00,WeatherDisplay:10.37,2013-01-26 18:19:00,
2013-01-26 12:24:00,18.3,2.8,29.35,SE,137,7.0,0.0,50,0.00,,FEW,0.00,WeatherDisplay:10.37,2013-01-26 18:24:00,
2013-01-26 12:29:00,18.7,3.1,29.35,SE,136,3.0,0.0,50,0.00,,FEW,0.00,WeatherDisplay:10.37,2013-01-26 18:29:00,
2013-01-26 12:34:00,20.7,4.5,29.35,SE,135,10.4,10.4,49,0.00,,FEW,0.00,WeatherDisplay:10.37,2013-01-26 18:34:00,
2013-01-26 12:39:00,21.0,4.4,29.35,South,180,8.1,8.1,48,0.00,,FEW,0.00,WeatherDisplay:10.37,2013-01-26 18:39:00,
2013-01-26 12:44:00,21.0,4.4,29.35,SSE,153,3.0,0.0,48,0.00,,FEW,0.00,WeatherDisplay:10.37,2013-01-26 18:44:00,
2013-01-26 12:49:00,21.9,4.7,29.35,SSE,158,7.8,7.8,47,0.00,,FEW,0.00,WeatherDisplay:10.37,2013-01-26 18:49:00,
2013-01-26 12:54:00,21.7,4.1,29.35,SE,141,7.0,0.0,46,0.00,,FEW,0.00,WeatherDisplay:10.37,2013-01-26 18:54:00,
2013-01-26 12:59:00,22.6,4.9,29.35,East,90,12.7,12.7,46,0.00,,FEW,0.00,WeatherDisplay:10.37,2013-01-26 18:59:00,
2013-01-26 13:04:00,22.8,5.1,29.32,South,180,9.2,9.2,46,0.00,,FEW,0.00,WeatherDisplay:10.37,2013-01-26 19:04:00,
2013-01-26 13:09:00,23.6,5.8,29.32,SE,134,5.0,0.0,46,0.00,,FEW,0.00,WeatherDisplay:10.37,2013-01-26 19:09:00,
2013-01-26 13:14:00,23.7,5.4,29.32,East,90,10.4,10.4,45,0.00,,FEW,0.00,WeatherDisplay:10.37,2013-01-26 19:14:00,
2013-01-26 13:19:00,23.9,5.6,29.29,SSE,158,8.1,8.1,45,0.00,,FEW,0.00,WeatherDisplay:10.37,2013-01-26 19:19:00,
2013-01-26 13:24:00,23.2,5.0,29.29,SE,138,9.0,0.0,45,0.00,,FEW,0.00,WeatherDisplay:10.37,2013-01-26 19:24:00,
2013-01-26 13:29:00,22.6,4.5,29.29,ESE,112,12.7,12.7,45,0.00,,FEW,0.00,WeatherDisplay:10.37,2013-01-26 19:29:00,
2013-01-26 13:34:00,22.6,4.5,29.32,SSE,158,11.5,11.5,45,0.00,,FEW,0.00,WeatherDisplay:10.37,2013-01-26 19:34:00,
2013-01-26 13:39:00,22.8,4.6,29.32,SSE,151,7.0,0.0,45,0.00,,FEW,0.00,WeatherDisplay:10.37,2013-01-26 19:39:00,
2013-01-26 13:44:00,23.2,4.9,29.32,SSE,158,13.8,13.8,45,0.00,,FEW,0.00,WeatherDisplay:10.37,2013-01-26 19:44:00,
2013-01-26 13:49:00,22.8,4.6,29.32,SE,135,8.1,8.1,45,0.00,,FEW,0.00,WeatherDisplay:10.37,2013-01-26 19:49:00,
2013-01-26 13:54:00,23.0,4.8,29.32,SE,138,5.0,0.0,45,0.00,,FEW,0.00,WeatherDisplay:10.37,2013-01-26 19:54:00,
2013-01-26 13:59:00,23.2,4.5,29.32,SE,135,8.1,8.1,44,0.00,,FEW,0.00,WeatherDisplay:10.37,2013-01-26 19:59:00,
2013-01-26 14:04:00,23.0,4.8,29.26,SE,127,7.0,0.0,45,0.00,,FEW,0.00,WeatherDisplay:10.37,2013-01-26 20:04:00,
2013-01-26 14:09:00,23.0,4.8,29.26,SE,141,7.0,0.0,45,0.00,,FEW,0.00,WeatherDisplay:10.37,2013-01-26 20:09:00,
2013-01-26 14:14:00,23.2,4.5,29.26,SSE,158,10.4,10.4,44,0.00,,FEW,0.00,WeatherDisplay:10.37,2013-01-26 20:14:00,
2013-01-26 14:19:00,23.4,5.1,29.29,SE,129,5.0,0.0,45,0.00,,FEW,0.00,WeatherDisplay:10.37,2013-01-26 20:19:00,
2013-01-26 14:24:00,23.5,5.3,29.29,SE,140,5.0,0.0,45,0.00,,FEW,0.00,WeatherDisplay:10.37,2013-01-26 20:24:00,
2013-01-26 14:29:00,23.7,5.4,29.29,SE,144,8.0,0.0,45,0.00,,FEW,0.00,WeatherDisplay:10.37,2013-01-26 20:29:00,
2013-01-26 14:34:00,23.7,5.4,29.26,SE,140,7.0,0.0,45,0.00,,FEW,0.00,WeatherDisplay:10.37,2013-01-26 20:34:00,
2013-01-26 14:39:00,24.4,6.1,29.26,SE,145,6.0,0.0,45,0.00,,FEW,0.00,WeatherDisplay:10.37,2013-01-26 20:39:00,
2013-01-26 14:44:00,24.6,6.3,29.26,ESE,112,8.1,8.1,45,0.00,,FEW,0.00,WeatherDisplay:10.37,2013-01-26 20:44:00,
2013-01-26 14:49:00,24.8,5.9,29.26,SE,136,7.0,0.0,44,0.00,,FEW,0.00,WeatherDisplay:10.37,2013-01-26 20:49:00,
2013-01-26 14:54:00,25.2,6.3,29.26,SE,135,9.2,9.2,44,0.00,,FEW,0.00,WeatherDisplay:10.37,2013-01-26 20:54:00,
2013-01-26 14:59:00,25.9,6.9,29.26,SE,135,9.2,9.2,44,0.00,,FEW,0.00,WeatherDisplay:10.37,2013-01-26 20:59:00,
2013-01-26 15:04:00,26.2,7.3,29.26,SE,131,7.0,0.0,44,0.00,,FEW,0.00,WeatherDisplay:10.37,2013-01-26 21:04:00,
2013-01-26 15:09:00,25.7,6.8,29.26,SE,141,8.0,0.0,44,0.00,,FEW,0.00,WeatherDisplay:10.37,2013-01-26 21:09:00,
2013-01-26 15:14:00,25.5,6.6,29.26,SSE,158,12.7,12.7,44,0.00,,FEW,0.00,WeatherDisplay:10.37,2013-01-26 21:14:00,
2013-01-26 15:19:00,25.5,6.6,29.24,SE,144,8.0,0.0,44,0.00,,FEW,0.00,WeatherDisplay:10.37,2013-01-26 21:19:00,
2013-01-26 15:24:00,25.7,6.8,29.24,SSE,148,8.0,0.0,44,0.00,,FEW,0.00,WeatherDisplay:10.37,2013-01-26 21:24:00,
2013-01-26 15:29:00,25.5,6.6,29.24,SSE,158,11.5,11.5,44,0.00,,FEW,0.00,WeatherDisplay:10.37,2013-01-26 21:29:00,
2013-01-26 15:34:00,25.5,6.6,29.26,SE,141,6.0,0.0,44,0.00,,FEW,0.00,WeatherDisplay:10.37,2013-01-26 21:34:00,
2013-01-26 15:39:00,25.0,6.1,29.26,SE,135,11.5,11.5,44,0.00,,FEW,0.00,WeatherDisplay:10.37,2013-01-26 21:39:00,
2013-01-26 15:44:00,25.0,6.1,29.26,SE,134,8.0,0.0,44,0.00,,FEW,0.00,WeatherDisplay:10.37,2013-01-26 21:44:00,
2013-01-26 15:49:00,24.8,5.9,29.26,SE,135,10.4,10.4,44,0.00,,FEW,0.00,WeatherDisplay:10.37,2013-01-26 21:49:00,
2013-01-26 15:54:00,24.8,6.4,29.26,SE,130,7.0,0.0,45,0.00,,FEW,0.00,WeatherDisplay:10.37,2013-01-26 21:54:00,
2013-01-26 15:59:00,25.0,6.1,29.26,SE,135,6.0,0.0,44,0.00,,FEW,0.00,WeatherDisplay:10.37,2013-01-26 21:59:00,
2013-01-26 16:04:00,25.0,6.6,29.26,SE,135,8.1,8.1,45,0.00,,FEW,0.00,WeatherDisplay:10.37,2013-01-26 22:04:00,
2013-01-26 16:09:00,25.0,6.6,29.26,SE,127,7.0,0.0,45,0.00,,FEW,0.00,WeatherDisplay:10.37,2013-01-26 22:09:00,
2013-01-26 16:14:00,25.0,6.6,29.26,SE,125,9.0,0.0,45,0.00,,FEW,0.00,WeatherDisplay:10.37,2013-01-26 22:14:00,
2013-01-26 16:19:00,25.0,6.6,29.24,SE,135,8.1,8.1,45,0.00,,FEW,0.00,WeatherDisplay:10.37,2013-01-26 22:19:00,
2013-01-26 16:24:00,25.0,6.6,29.24,ESE,112,5.8,5.8,45,0.00,,FEW,0.00,WeatherDisplay:10.37,2013-01-26 22:24:00,
2013-01-26 16:29:00,24.9,6.6,29.24,SE,126,7.0,0.0,45,0.00,,FEW,0.00,WeatherDisplay:10.37,2013-01-26 22:29:00,
2013-01-26 16:34:00,24.8,6.4,29.24,SE,127,8.0,0.0,45,0.00,,FEW,0.00,WeatherDisplay:10.37,2013-01-26 22:34:00,
2013-01-26 16:39:00,24.6,6.3,29.24,ESE,123,6.0,0.0,45,0.00,,FEW,0.00,WeatherDisplay:10.37,2013-01-26 22:39:00,
2013-01-26 16:44:00,24.6,6.8,29.24,SE,135,8.1,8.1,46,0.00,,FEW,0.00,WeatherDisplay:10.37,2013-01-26 22:44:00,
2013-01-26 16:49:00,24.4,6.6,29.24,SE,132,7.0,0.0,46,0.00,,FEW,0.00,WeatherDisplay:10.37,2013-01-26 22:49:00,
2013-01-26 16:54:00,24.4,6.6,29.24,SE,126,10.0,0.0,46,0.00,,FEW,0.00,WeatherDisplay:10.37,2013-01-26 22:54:00,
2013-01-26 16:59:00,24.4,6.6,29.24,SE,135,9.2,9.2,46,0.00,,FEW,0.00,WeatherDisplay:10.37,2013-01-26 22:59:00,
2013-01-26 17:04:00,24.4,6.6,29.20,SE,131,5.0,0.0,46,0.00,,FEW,0.00,WeatherDisplay:10.37,2013-01-26 23:04:00,
2013-01-26 17:09:00,24.4,6.6,29.20,SE,125,8.0,0.0,46,0.00,,FEW,0.00,WeatherDisplay:10.37,2013-01-26 23:09:00,
2013-01-26 17:14:00,24.4,6.6,29.20,SE,135,13.8,13.8,46,0.00,,FEW,0.00,WeatherDisplay:10.37,2013-01-26 23:14:00,
2013-01-26 17:19:00,24.4,6.6,29.20,SE,135,9.0,0.0,46,0.00,,FEW,0.00,WeatherDisplay:10.37,2013-01-26 23:19:00,
2013-01-26 17:24:00,24.4,6.6,29.20,ESE,112,11.5,11.5,46,0.00,,FEW,0.00,WeatherDisplay:10.37,2013-01-26 23:24:00,
2013-01-26 17:29:00,24.4,6.6,29.20,SE,135,10.5,10.5,46,0.00,,FEW,0.00,WeatherDisplay:10.37,2013-01-26 23:29:00,
2013-01-26 17:34:00,24.4,6.6,29.24,SE,132,10.0,0.0,46,0.00,,FEW,0.00,WeatherDisplay:10.37,2013-01-26 23:34:00,
2013-01-26 17:39:00,24.4,6.6,29.24,SE,135,10.4,10.4,46,0.00,,FEW,0.00,WeatherDisplay:10.37,2013-01-26 23:39:00,
2013-01-26 17:44:00,24.3,6.4,29.24,SE,134,9.0,0.0,46,0.00,,FEW,0.00,WeatherDisplay:10.37,2013-01-26 23:44:00,
2013-01-26 17:49:00,24.3,6.4,29.20,SE,131,6.0,0.0,46,0.00,,FEW,0.00,WeatherDisplay:10.37,2013-01-26 23:49:00,
2013-01-26 17:54:00,24.3,6.4,29.20,SSE,158,6.9,6.9,46,0.00,,FEW,0.00,WeatherDisplay:10.37,2013-01-26 23:54:00,
2013-01-26 17:59:00,24.3,6.4,29.20,SE,141,6.0,0.0,46,0.00,,FEW,0.00,WeatherDisplay:10.37,2013-01-26 23:59:00,
2013-01-26 18:04:00,24.1,6.3,29.20,SE,135,12.7,12.7,46,0.00,,FEW,0.00,WeatherDisplay:10.37,2013-01-27 00:04:00,
2013-01-26 18:09:00,24.1,6.3,29.20,SSE,158,12.7,12.7,46,0.00,,FEW,0.00,WeatherDisplay:10.37,2013-01-27 00:09:00,
2013-01-26 18:14:00,24.1,6.3,29.20,SE,137,8.0,0.0,46,0.00,,FEW,0.00,WeatherDisplay:10.37,2013-01-27 00:14:00,
2013-01-26 18:19:00,24.1,6.3,29.20,SE,135,6.9,7.1,46,0.00,,FEW,0.00,WeatherDisplay:10.37,2013-01-27 00:19:00,
2013-01-26 18:24:00,24.1,6.3,29.20,SE,135,8.7,8.7,46,0.00,,FEW,0.00,WeatherDisplay:10.37,2013-01-27 00:24:00,
2013-01-26 18:29:00,24.1,6.3,29.20,SE,136,10.0,0.0,46,0.00,,FEW,0.00,WeatherDisplay:10.37,2013-01-27 00:29:00,
2013-01-26 18:34:00,24.1,6.3,29.24,SE,143,7.0,0.0,46,0.00,,FEW,0.00,WeatherDisplay:10.37,2013-01-27 00:34:00,
2013-01-26 18:39:00,24.1,6.3,29.24,SSE,158,10.5,10.5,46,0.00,,FEW,0.00,WeatherDisplay:10.37,2013-01-27 00:39:00,
2013-01-26 18:44:00,24.1,6.3,29.24,SE,145,7.0,0.0,46,0.00,,FEW,0.00,WeatherDisplay:10.37,2013-01-27 00:44:00,
2013-01-26 18:49:00,24.1,6.3,29.20,SE,142,6.0,0.0,46,0.00,,FEW,0.00,WeatherDisplay:10.37,2013-01-27 00:49:00,
2013-01-26 18:54:00,23.7,6.4,29.20,SSE,158,12.7,12.7,47,0.00,,FEW,0.00,WeatherDisplay:10.37,2013-01-27 00:54:00,
2013-01-26 18:59:00,23.6,6.2,29.20,SE,140,7.0,0.0,47,0.00,,FEW,0.00,WeatherDisplay:10.37,2013-01-27 00:59:00,
2013-01-26 19:04:00,23.5,6.2,29.20,SE,135,10.4,10.4,47,0.00,,FEW,0.00,WeatherDisplay:10.37,2013-01-27 01:04:00,
2013-01-26 19:09:00,23.5,6.2,29.20,SSE,158,10.4,10.4,47,0.00,,FEW,0.00,WeatherDisplay:10.37,2013-01-27 01:09:00,
2013-01-26 19:14:00,23.5,6.2,29.20,SE,139,5.0,0.0,47,0.00,,FEW,0.00,WeatherDisplay:10.37,2013-01-27 01:14:00,
2013-01-26 19:19:00,23.5,6.2,29.20,SE,135,7.6,7.6,47,0.00,,FEW,0.00,WeatherDisplay:10.37,2013-01-27 01:19:00,
2013-01-26 19:24:00,23.5,6.2,29.20,SSE,158,8.1,8.1,47,0.00,,FEW,0.00,WeatherDisplay:10.37,2013-01-27 01:24:00,
2013-01-26 19:29:00,23.5,6.2,29.20,SE,133,6.0,0.0,47,0.00,,FEW,0.00,WeatherDisplay:10.37,2013-01-27 01:29:00,
2013-01-26 19:34:00,23.5,6.7,29.20,SE,131,7.0,0.0,48,0.00,,FEW,0.00,WeatherDisplay:10.37,2013-01-27 01:34:00,
2013-01-26 19:39:00,23.5,6.7,29.20,SE,137,7.0,0.0,48,0.00,,FEW,0.00,WeatherDisplay:10.37,2013-01-27 01:39:00,
2013-01-26 19:44:00,23.5,6.7,29.20,SE,137,8.0,0.0,48,0.00,,FEW,0.00,WeatherDisplay:10.37,2013-01-27 01:44:00,
2013-01-26 19:49:00,23.5,6.7,29.18,SE,144,9.0,0.0,48,0.00,,FEW,0.00,WeatherDisplay:10.37,2013-01-27 01:49:00,
2013-01-26 19:54:00,23.5,6.7,29.18,SE,144,9.0,0.0,48,0.00,,FEW,0.00,WeatherDisplay:10.37,2013-01-27 01:54:00,
2013-01-26 19:59:00,23.5,6.7,29.18,SE,136,6.0,0.0,48,0.00,,FEW,0.00,WeatherDisplay:10.37,2013-01-27 01:59:00,
2013-01-26 20:04:00,23.5,6.7,29.20,SE,135,8.0,0.0,48,0.00,,FEW,0.00,WeatherDisplay:10.37,2013-01-27 02:04:00,
2013-01-26 20:09:00,23.5,6.7,29.20,SSE,158,8.1,8.1,48,0.00,,FEW,0.00,WeatherDisplay:10.37,2013-01-27 02:09:00,
2013-01-26 20:14:00,23.5,6.7,29.20,ESE,112,10.4,10.4,48,0.00,,FEW,0.00,WeatherDisplay:10.37,2013-01-27 02:14:00,
2013-01-26 20:19:00,23.5,6.7,29.24,SE,134,3.0,0.0,48,0.00,,FEW,0.00,WeatherDisplay:10.37,2013-01-27 02:19:00,
2013-01-26 20:24:00,23.5,7.2,29.24,SE,139,5.0,0.0,49,0.00,,FEW,0.00,WeatherDisplay:10.37,2013-01-27 02:24:00,
2013-01-26 20:29:00,23.5,7.2,29.24,ESE,112,9.2,9.2,49,0.00,,FEW,0.00,WeatherDisplay:10.37,2013-01-27 02:29:00,
2013-01-26 20:34:00,23.4,7.0,29.20,SE,134,3.0,0.0,49,0.00,,FEW,0.00,WeatherDisplay:10.37,2013-01-27 02:34:00,
2013-01-26 20:39:00,23.4,7.0,29.20,SE,135,3.5,4.9,49,0.00,,FEW,0.00,WeatherDisplay:10.37,2013-01-27 02:39:00,
2013-01-26 20:44:00,23.2,6.8,29.20,SE,135,4.9,4.9,49,0.00,,FEW,0.00,WeatherDisplay:10.37,2013-01-27 02:44:00,
2013-01-26 20:49:00,23.2,7.3,29.20,SE,139,3.0,0.0,50,0.00,,FEW,0.00,WeatherDisplay:10.37,2013-01-27 02:49:00,
2013-01-26 20:54:00,23.0,7.1,29.20,SE,137,5.0,0.0,50,0.00,,FEW,0.00,WeatherDisplay:10.37,2013-01-27 02:54:00,
2013-01-26 20:59:00,23.4,7.4,29.20,SSE,158,5.8,5.8,50,0.00,,FEW,0.00,WeatherDisplay:10.37,2013-01-27 02:59:00,
2013-01-26 21:04:00,23.4,7.4,29.20,SE,135,3.0,0.0,50,0.00,,FEW,0.00,WeatherDisplay:10.37,2013-01-27 03:04:00,
2013-01-26 21:09:00,23.2,7.3,29.20,SSE,158,4.6,4.6,50,0.00,,FEW,0.00,WeatherDisplay:10.37,2013-01-27 03:09:00,
2013-01-26 21:14:00,23.0,7.5,29.20,ESE,112,5.8,5.8,51,0.00,,FEW,0.00,WeatherDisplay:10.37,2013-01-27 03:14:00,
2013-01-26 21:19:00,23.0,7.5,29.20,SE,128,3.0,0.0,51,0.00,,FEW,0.00,WeatherDisplay:10.37,2013-01-27 03:19:00,
2013-01-26 21:24:00,23.0,7.5,29.20,SE,135,5.9,5.9,51,0.00,,FEW,0.00,WeatherDisplay:10.37,2013-01-27 03:24:00,
2013-01-26 21:29:00,22.8,7.8,29.20,ESE,112,5.8,5.8,52,0.00,,FEW,0.00,WeatherDisplay:10.37,2013-01-27 03:29:00,
2013-01-26 21:34:00,23.0,8.0,29.20,SE,135,7.0,0.0,52,0.00,,FEW,0.00,WeatherDisplay:10.37,2013-01-27 03:34:00,
2013-01-26 21:39:00,23.2,8.1,29.20,SE,135,6.9,6.9,52,0.00,,FEW,0.00,WeatherDisplay:10.37,2013-01-27 03:39:00,
2013-01-26 21:44:00,23.3,8.3,29.20,SSE,148,7.0,0.0,52,0.00,,FEW,0.00,WeatherDisplay:10.37,2013-01-27 03:44:00,
2013-01-26 21:49:00,23.5,8.5,29.20,East,90,6.9,6.9,52,0.00,,FEW,0.00,WeatherDisplay:10.37,2013-01-27 03:49:00,
2013-01-26 21:54:00,23.5,8.5,29.20,SE,139,6.0,0.0,52,0.00,,FEW,0.00,WeatherDisplay:10.37,2013-01-27 03:54:00,
2013-01-26 21:59:00,23.5,8.5,29.20,SE,145,5.0,0.0,52,0.00,,FEW,0.00,WeatherDisplay:10.37,2013-01-27 03:59:00,
2013-01-26 22:04:00,23.5,8.5,29.20,SE,142,7.0,0.0,52,0.00,,FEW,0.00,WeatherDisplay:10.37,2013-01-27 04:04:00,
2013-01-26 22:09:00,23.5,8.5,29.20,SSE,158,6.2,6.7,52,0.00,,FEW,0.00,WeatherDisplay:10.37,2013-01-27 04:09:00,
2013-01-26 22:14:00,23.5,8.5,29.20,SSE,153,7.0,0.0,52,0.00,,FEW,0.00,WeatherDisplay:10.37,2013-01-27 04:14:00,
2013-01-26 22:19:00,23.5,8.5,29.18,ESE,112,8.1,8.1,52,0.00,,FEW,0.00,WeatherDisplay:10.37,2013-01-27 04:19:00,
2013-01-26 22:24:00,23.9,8.8,29.18,SE,135,6.2,7.4,52,0.00,,FEW,0.00,WeatherDisplay:10.37,2013-01-27 04:24:00,
2013-01-26 22:29:00,23.9,8.8,29.18,SSE,158,5.8,5.8,52,0.00,,FEW,0.00,WeatherDisplay:10.37,2013-01-27 04:29:00,
2013-01-26 22:34:00,23.9,8.8,29.18,SSE,158,8.1,8.1,52,0.00,,FEW,0.00,WeatherDisplay:10.37,2013-01-27 04:34:00,
2013-01-26 22:39:00,23.9,8.8,29.18,SSE,158,6.0,6.0,52,0.00,,FEW,0.00,WeatherDisplay:10.37,2013-01-27 04:39:00,
2013-01-26 22:45:00,23.9,8.8,29.18,SSW,202,5.8,5.8,52,0.00,,FEW,0.00,WeatherDisplay:10.37,2013-01-27 04:45:00,
2013-01-26 22:50:00,24.1,9.0,29.20,SE,135,5.9,5.9,52,0.00,,FEW,0.00,WeatherDisplay:10.37,2013-01-27 04:50:00,
2013-01-26 22:55:00,24.1,9.0,29.20,SE,135,5.8,5.8,52,0.00,,FEW,0.00,WeatherDisplay:10.37,2013-01-27 04:55:00,
2013-01-26 23:01:00,24.1,9.0,29.20,East,90,8.5,8.5,52,0.00,,FEW,0.00,WeatherDisplay:10.37,2013-01-27 05:01:00,
2013-01-26 23:02:00,24.1,9.0,29.18,SSE,158,11.5,11.5,52,0.00,,FEW,0.00,WeatherDisplay:10.37,2013-01-27 05:02:00,
2013-01-26 23:07:00,24.1,9.0,29.18,ESE,112,10.4,10.4,52,0.00,,FEW,0.00,WeatherDisplay:10.37,2013-01-27 05:07:00,
2013-01-26 23:12:00,24.1,9.0,29.18,SE,135,6.9,7.6,52,0.00,,FEW,0.00,WeatherDisplay:10.37,2013-01-27 05:12:00,
2013-01-26 23:17:00,24.1,9.0,29.18,SSE,158,12.7,12.7,52,0.00,,FEW,0.00,WeatherDisplay:10.37,2013-01-27 05:17:00,
2013-01-26 23:22:00,24.1,9.0,29.18,ESE,112,8.1,8.1,52,0.00,,FEW,0.00,WeatherDisplay:10.37,2013-01-27 05:22:00,
2013-01-26 23:27:00,24.1,9.0,29.18,SE,135,6.9,6.9,52,0.00,,FEW,0.00,WeatherDisplay:10.37,2013-01-27 05:27:00,
2013-01-26 23:32:00,24.4,9.3,29.18,ESE,112,11.5,11.5,52,0.00,,FEW,0.00,WeatherDisplay:10.37,2013-01-27 05:32:00,
2013-01-26 23:37:00,24.4,9.3,29.18,SSE,158,8.1,8.1,52,0.00,,FEW,0.00,WeatherDisplay:10.37,2013-01-27 05:37:00,
2013-01-26 23:42:00,24.4,9.3,29.18,ESE,112,8.1,8.1,52,0.00,,FEW,0.00,WeatherDisplay:10.37,2013-01-27 05:42:00,
2013-01-26 23:47:00,24.6,9.5,29.18,SSE,158,10.5,10.5,52,0.00,,FEW,0.00,WeatherDisplay:10.37,2013-01-27 05:47:00,
2013-01-26 23:53:00,24.6,9.0,29.18,ESE,112,5.8,5.8,51,0.00,,FEW,0.00,WeatherDisplay:10.37,2013-01-27 05:53:00,
2013-01-26 23:58:00,24.6,9.0,29.18,SE,135,10.4,10.4,51,0.00,,FEW,0.00,WeatherDisplay:10.37,2013-01-27 05:58:00,